カタログに戻る

DELTA 1 DEB

運用中UNKNOWN
NORAD 28979·DEBRIS·🇺🇸 United States

打ち上げ Jul 29, 1976 から Vandenberg Space Force Base

Loading…

次のパス (今後24時間)

TLE

最新Source: Space-Track

元期: Sep 13, 2026, 18:15 UTC

1 28979U 76077FU  26256.76072203 -.00000001  00000-0  61894-3 0  9993
2 28979 102.0330 354.6378 0802759 183.0076 176.5887 10.95268112893140

AllMySatでDELTA 1 DEBをリアルタイム追跡

Download on the App Store